Weerstation Grootegast  Weerstation Grootegast


15 daagse weersverwachting Nokia (FI)

  • Overzicht
  • Per uur
  • 15 dagen
  • Extra
  • Vergelijk
  • Kaarten
  • Dagkaart
  • Meer »
  • Info
  • Statistieken
  • Directe link
    Temp 6h Neerslag Wind  
 09:42     15:03    Daglengte: 5:21 Vandaag
14:00
-0°
 
3
20:00
 
2
 09:43     15:03    Daglengte: 5:20 Morgen
02:00
 
4
08:00
-0°
6.3 mm
3
warningclass
14:00
7.2 mm
2
warningclass
20:00
-0°
 
1
 09:44     15:03    Daglengte: 5:19 Zondag 17 Dec
02:00
-1°
 
1
08:00
-2°
 
3
14:00
-3°
 
2
20:00
-5°
 
1
 09:45     15:04    Daglengte: 5:19 Maandag 18 Dec
02:00
-3°
5.6 mm
2
warningclass
08:00
-2°
 
2
Locatie info
Region: Pirkanmaa
Latitude: 61.4808°N
Longitude: 23.5047°E
89 masl
Postcode: 37100
Temp/Neerslag /Baro Onweer/DauwpuntSneeuw
    Temp Baro 1h Neerslag Dauwpunt Wind UV BewolkingSneeuw  
 09:42     15:03    Daglengte: 5:21 Vandaag
11:00
-1°
Voelt als: -4.7°
991.0 hPa
49%
-1.8°
3
Windvlaag: 2.8 m/s
77%10 cm
12:00
-1°
Voelt als: -4.2°
990.9 hPa
76%
-1.5°
3
Windvlaag: 3.1 m/s
77%10 cm
13:00
-0°
Voelt als: -3.9°
990.9 hPa
71%
-1.2°
3
Windvlaag: 1.9 m/s
77%10 cm
14:00
-0°
Voelt als: -3.8°
991.0 hPa
71%
-1.0°
3
Windvlaag: 2.2 m/s
77%10 cm
15:00
-0°
Voelt als: -3.5°
991.1 hPa
79%
-0.8°
3
Windvlaag: 2.4 m/s
77%10 cm
16:00
-0°
Voelt als: -3.4°
991.4 hPa
77%
-0.7°
3
Windvlaag: 2.4 m/s
77%10 cm
17:00
-0°
Voelt als: -3.3°
991.6 hPa
76%
-0.5°
3
Windvlaag: 2.6 m/s
77%10 cm
18:00
-0°
Voelt als: -3.2°
991.8 hPa
72%
-0.3°
3
Windvlaag: 2.1 m/s
77%10 cm
19:00
Voelt als: -2.9°
992.0 hPa
64%
-0.1°
2
Windvlaag: 2 m/s
77%10 cm
20:00
Voelt als: -2.7°
992.3 hPa
22%
-0.0°
2
Windvlaag: 2.2 m/s
77%10 cm
21:00
Voelt als: -2.8°
992.6 hPa
23%
0.0°
2
Windvlaag: 2.1 m/s
77%10 cm
22:00
Voelt als: -2.9°
992.9 hPa
56%
0.0°
3
Windvlaag: 3 m/s
77%10 cm
23:00
Voelt als: -3.1°
992.7 hPa
71%
-0.1°
3
Windvlaag: 3.4 m/s
77%9 cm
 09:43     15:03    Daglengte: 5:20 Morgen
00:00
Voelt als: -3.4°
992.6 hPa
80%
-0.0°
3
Windvlaag: 1.3 m/s
75%9 cm
01:00
Voelt als: -3.7°
992.8 hPa
82%
-0.2°
3
Windvlaag: 1.7 m/s
77%9 cm
02:00
Voelt als: -4.0°
993.0 hPa
20%
-0.2°
4
Windvlaag: 2.1 m/s
75%9 cm
03:00
Voelt als: -4.0°
993.0 hPa 1.3 mm
82%
-0.2°
4
Windvlaag: 3.2 m/s
70%10 cm warningclass
04:00
-0°
Voelt als: -4.0°
992.9 hPa 0.6 mm
82%
-0.2°
4
Windvlaag: 3.6 m/s
74%10 cm warningclass
05:00
-0°
Voelt als: -3.9°
993.2 hPa 0.8 mm
82%
-0.3°
3
Windvlaag: 4.1 m/s
70%10 cm warningclass
06:00
-0°
Voelt als: -3.8°
993.4 hPa 1.1 mm
82%
-0.3°
3
Windvlaag: 4.1 m/s
77%10 cm warningclass
07:00
-0°
Voelt als: -3.7°
993.6 hPa 1.2 mm
82%
-0.4°
3
Windvlaag: 4 m/s
77%11 cm warningclass
08:00
-0°
Voelt als: -3.6°
993.7 hPa 1.3 mm
82%
-0.3°
3
Windvlaag: 3.8 m/s
77%11 cm warningclass
09:00
-0°
Voelt als: -3.6°
994.3 hPa 1.5 mm
82%
-0.4°
3
Windvlaag: 3.5 m/s
69%12 cm warningclass
10:00
-0°
Voelt als: -3.5°
994.7 hPa 1.5 mm
82%
-0.3°
3
Windvlaag: 4.1 m/s
68%12 cm warningclass
11:00
-0°
Voelt als: -3.3°
994.9 hPa 1.5 mm
82%
-0.4°
3
Windvlaag: 4 m/s
75%11 cm warningclass
12:00
-0°
Voelt als: -3.1°
995.2 hPa 1.3 mm
82%
-0.2°
2
Windvlaag: 4.5 m/s
75%11 cm warningclass
13:00
Voelt als: -2.9°
995.6 hPa 1.3 mm
82%
-0.2°
2
Windvlaag: 4.3 m/s
74%11 cm warningclass
14:00
Voelt als: -2.6°
995.9 hPa
79%
-0.2°
2
Windvlaag: 4.6 m/s
72%12 cm
15:00
-0°
Voelt als: -2.5°
996.2 hPa
76%
-0.2°
2
Windvlaag: 4.1 m/s
74%12 cm
16:00
-0°
Voelt als: -2.5°
996.7 hPa
76%
-0.4°
2
Windvlaag: 3.6 m/s
77%12 cm
17:00
-0°
Voelt als: -2.0°
997.2 hPa
78%
-0.3°
1
Windvlaag: 3.1 m/s
77%12 cm
18:00
-0°
Voelt als: -2.0°
997.8 hPa
75%
-0.5°
1
Windvlaag: 2.2 m/s
77%12 cm
19:00
-0°
Voelt als: -1.6°
998.4 hPa
74%
-0.4°
1
Windvlaag: 1.4 m/s
77%12 cm
20:00
-0°
Voelt als: -1.3°
998.8 hPa
78%
-0.4°
1
Windvlaag: 0.9 m/s
77%12 cm
21:00
-0°
Voelt als: -1.4°
999.4 hPa
82%
-0.4°
1
Windvlaag: 0.5 m/s
77%12 cm
22:00
-0°
Voelt als: -1.9°
999.7 hPa
82%
-0.6°
1
Windvlaag: 0.6 m/s
77%12 cm
23:00
-0°
Voelt als: -1.7°
1000.2 hPa
77%
-0.6°
1
Windvlaag: 0.7 m/s
75%12 cm
 09:44     15:03    Daglengte: 5:19 Zondag 17 Dec
00:00
-1°
Voelt als: -1.6°
1000.5 hPa
73%
-0.8°
1
Windvlaag: 0.1 m/s
71%12 cm
01:00
-1°
Voelt als: -1.8°
1001.1 hPa
69%
-0.9°
1
Windvlaag: 0.2 m/s
54%12 cm
02:00
-1°
Voelt als: -2.0°
1001.4 hPa   -1.0°
1
Windvlaag: -0.3 m/s
66%12 cm
03:00
-1°
Voelt als: -2.2°
1001.9 hPa
21%
-0.9°
1
Windvlaag: -1.1 m/s
77%12 cm
04:00
-1°
Voelt als: -2.7°
1002.3 hPa
68%
-0.9°
1
Windvlaag: -1.3 m/s
75%12 cm
05:00
-2°
Voelt als: -4.8°
1002.9 hPa
91%
-1.9°
3
Windvlaag: -1.9 m/s
88%12 cm
06:00
-2°
Voelt als: -5.1°
1003.3 hPa
97%
-2.6°
2
Windvlaag: -2.4 m/s
88%12 cm
07:00
-2°
Voelt als: -5.1°
1003.6 hPa
99%
-2.7°
2
Windvlaag: -2.4 m/s
88%12 cm
08:00
-2°
Voelt als: -5.8°
1003.9 hPa
89%
-2.7°
3
Windvlaag: -2.7 m/s
88%12 cm
09:00
-2°
Voelt als: -5.9°
1004.5 hPa
69%
-2.9°
3
Windvlaag: -2.4 m/s
84%12 cm
10:00
-3°
Voelt als: -6.3°
1005.1 hPa
34%
-3.2°
3
Windvlaag: -2.2 m/s
82%12 cm
11:00
-3°
Voelt als: -7.0°
1005.7 hPa
82%
-3.5°
3
Windvlaag: -1.6 m/s
83%12 cm
12:00
-3°
Voelt als: -7.1°
1006.1 hPa
44%
-3.9°
3
Windvlaag: -1.1 m/s
71%12 cm
13:00
-4°
Voelt als: -7.0°
1006.5 hPa
35%
-4.1°
2
Windvlaag: -1.2 m/s
71%12 cm
14:00
-3°
Voelt als: -6.8°
1007.0 hPa
33%
-4.1°
2
Windvlaag: -1.1 m/s
52%12 cm
15:00
-4°
Voelt als: -7.6°
1007.6 hPa
30%
-4.9°
2
Windvlaag: -0.7 m/s
65%12 cm
16:00
-5°
Voelt als: -7.6°
1008.1 hPa
33%
-5.3°
2
Windvlaag: -0.7 m/s
58%12 cm
17:00
-5°
Voelt als: -7.7°
1008.4 hPa
23%
-5.8°
2
Windvlaag: -0.4 m/s
53%12 cm
18:00
-6°
Voelt als: -7.6°
1008.7 hPa
22%
-6.1°
1
Windvlaag: -0.2 m/s
78%12 cm
19:00
-6°
Voelt als: -6.8°
1009.2 hPa
26%
-5.8°
1
Windvlaag: 0.1 m/s
66%12 cm
20:00
-5°
Voelt als: -6.6°
1009.3 hPa
70%
-6.0°
1
Windvlaag: 1 m/s
77%12 cm
21:00
-5°
Voelt als: -7.5°
1009.5 hPa
27%
-5.7°
2
Windvlaag: 2.6 m/s
80%12 cm
22:00
-5°
Voelt als: -7.3°
1009.7 hPa
23%
-5.2°
2
Windvlaag: 3 m/s
86%12 cm
23:00
-4°
Voelt als: -7.0°
1009.9 hPa 2.8 mm
25%
-4.9°
2
Windvlaag: 2.9 m/s
71%12 cm warningclass
 09:45     15:04    Daglengte: 5:19 Maandag 18 Dec
00:00
-4°
Voelt als: -6.8°
1010.0 hPa 2.8 mm
35%
-4.9°
2
Windvlaag: 3.2 m/s
53%12 cm warningclass
01:00
-4°
Voelt als: -6.3°
1010.2 hPa
42%
-4.5°
2
Windvlaag: 3.2 m/s
86%12 cm
02:00
-3°
Voelt als: -5.6°
1010.6 hPa
25%
-3.9°
2
Windvlaag: 2.8 m/s
88%12 cm
03:00
-3°
Voelt als: -5.5°
1010.5 hPa
38%
-3.4°
2
Windvlaag: 4.7 m/s
66%12 cm
04:00
-3°
Voelt als: -5.4°
1010.8 hPa
27%
-3.4°
2
Windvlaag: 4.4 m/s
80%12 cm
05:00
-2°
Voelt als: -5.0°
1011.1 hPa
70%
-3.0°
2
Windvlaag: 3.7 m/s
80%12 cm
06:00
-2°
Voelt als: -4.7°
1011.4 hPa
30%
-2.6°
2
Windvlaag: 3.5 m/s
80%12 cm
07:00
-2°
Voelt als: -4.4°
1012.1 hPa
29%
-2.5°
2
Windvlaag: 3.2 m/s
80%12 cm
08:00
-2°
Voelt als: -4.6°
1012.5 hPa
35%
-2.6°
2
Windvlaag: 3.4 m/s
80%12 cm
09:00
-3°
Voelt als: -5.2°
1012.4 hPa 8.3 mm
100%
-3.6°
1
Windvlaag: 2.9 m/s
0%12 cm warningclass
10:00
-3°
Voelt als: -5.5°
1013.2 hPa 8.3 mm
100%
-3.7°
2
Windvlaag: 3.6 m/s
0%12 cm warningclass
Temp/Neerslag /Baro Onweer/DauwpuntSneeuw
    Temp Baro Neerslag Dauwpunt Wind BewolkingSneeuw  
 09:42     15:03    Daglengte: 5:21 Vandaag
11:00
-1°
Voelt als: -4.7°
991.0 hPa   -1.8°
3
77%10 cm
14:00
-0°
Voelt als: -3.8°
991.0 hPa   -1.0°
3
77%10 cm
17:00
-0°
Voelt als: -3.3°
991.6 hPa   -0.5°
3
77%10 cm
20:00
Voelt als: -2.7°
992.3 hPa   -0.0°
2
77%10 cm
23:00
Voelt als: -3.1°
992.7 hPa   -0.1°
3
77%9 cm
 09:43     15:03    Daglengte: 5:20 Morgen
02:00
Voelt als: -4.0°
993.0 hPa   -0.2°
4
75%9 cm
05:00
-0°
Voelt als: -3.9°
993.2 hPa 2.7 mm -0.3°
3
70%10 cm warningclass
08:00
-0°
Voelt als: -3.6°
993.7 hPa 3.6 mm -0.3°
3
77%11 cm warningclass
11:00
-0°
Voelt als: -3.3°
994.9 hPa 4.5 mm -0.4°
3
75%11 cm warningclass
14:00
Voelt als: -2.6°
995.9 hPa 2.6 mm -0.2°
2
72%12 cm warningclass
17:00
-0°
Voelt als: -2.0°
997.2 hPa   -0.3°
1
77%12 cm
20:00
-0°
Voelt als: -1.3°
998.8 hPa   -0.4°
1
77%12 cm
23:00
-0°
Voelt als: -1.7°
1000.2 hPa   -0.6°
1
75%12 cm
 09:44     15:03    Daglengte: 5:19 Zondag 17 Dec
02:00
-1°
Voelt als: -2.0°
1001.4 hPa   -1.0°
1
66%12 cm
05:00
-2°
Voelt als: -4.8°
1002.9 hPa   -1.9°
3
88%12 cm
08:00
-2°
Voelt als: -5.8°
1003.9 hPa   -2.7°
3
88%12 cm
11:00
-3°
Voelt als: -7.0°
1005.7 hPa   -3.5°
3
83%12 cm
14:00
-3°
Voelt als: -6.8°
1007.0 hPa   -4.1°
2
52%12 cm
17:00
-5°
Voelt als: -7.7°
1008.4 hPa   -5.8°
2
53%12 cm
20:00
-5°
Voelt als: -6.6°
1009.3 hPa   -6.0°
1
77%12 cm
23:00
-4°
Voelt als: -7.0°
1009.9 hPa 2.8 mm -4.9°
2
71%12 cm warningclass
 09:45     15:04    Daglengte: 5:19 Maandag 18 Dec
02:00
-3°
Voelt als: -5.6°
1010.6 hPa 2.8 mm -3.9°
2
88%12 cm warningclass
05:00
-2°
Voelt als: -5.0°
1011.1 hPa   -3.0°
2
80%12 cm
08:00
-2°
Voelt als: -4.6°
1012.5 hPa   -2.6°
2
80%12 cm
11:00
-3°
Voelt als: -5.4°
1014.0 hPa 24.9 mm -3.2°
2
0%12 cm warningclass
14:00
-2°
Voelt als: -4.5°
1014.9 hPa 25.2 mm -2.3°
2
0%12 cm warningclass
17:00
-7°
1021.1 hPa   -7.5°
0
0%
20:00
-7°
1022.5 hPa   -7.7°
0
0%
23:00
-7°
1023.7 hPa   -7.8°
1
0%
 09:45     15:04    Daglengte: 5:19 Dinsdag 19 Dec
02:00
-7°
Voelt als: -8.2°
1024.2 hPa   -7.6°
1
0%
05:00
-6°
Voelt als: -9.3°
1023.7 hPa   -7.0°
2
1%
08:00
-5°
Voelt als: -7.6°
1024.4 hPa   -5.7°
2
1%
11:00
-3°
Voelt als: -6.8°
1024.4 hPa 0.1 mm -4.3°
2
1%
14:00
-3°
Voelt als: -5.2°
1024.4 hPa 0.5 mm -3.2°
2
1% warningclass
17:00
-2°
Voelt als: -4.9°
1024.7 hPa   -2.8°
2
1%
20:00
-4°
Voelt als: -6.7°
1025.3 hPa   -4.4°
2
1%
23:00
-5°
Voelt als: -8.0°
1025.3 hPa   -5.0°
2
1%
 09:46     15:04    Daglengte: 5:18 Woensdag 20 Dec
02:00
-3°
Voelt als: -6.6°
1025.3 hPa   -3.6°
2
1%
05:00
-1°
Voelt als: -4.6°
1024.3 hPa   -1.5°
3
1%
08:00
-0°
Voelt als: -4.1°
1023.6 hPa 0.5 mm -1.0°
3
1% warningclass
11:00
Voelt als: -3.6°
1023.1 hPa 0.3 mm -0.7°
4
1% warningclass
14:00
Voelt als: -2.9°
1021.6 hPa 1.2 mm 0.1°
4
1% warningclass
17:00
Voelt als: -1.8°
1020.9 hPa 2.9 mm 0.7°
3
1% warningclass
20:00
Voelt als: -1.4°
1021.4 hPa 6.4 mm 0.7°
2
1% warningclass
23:00
Voelt als: -2.8°
1022.4 hPa 0.2 mm -0.6°
3
1% warningclass
 09:47     15:05    Daglengte: 5:18 Donderdag 21 Dec
02:00
-2°
Voelt als: -5.8°
1023.7 hPa 0.2 mm -3.4°
3
1% warningclass
05:00
-4°
Voelt als: -7.1°
1025.0 hPa   -5.0°
2
1%
08:00
-4°
Voelt als: -6.7°
1025.5 hPa   -5.3°
2
0%
11:00
-3°
Voelt als: -5.5°
1025.5 hPa   -3.9°
2
0%
14:00
-2°
Voelt als: -4.6°
1023.7 hPa   -2.2°
2
0%
17:00
-2°
Voelt als: -5.3°
1020.9 hPa   -2.6°
3
0%
20:00
-0°
Voelt als: -4.8°
1017.3 hPa   -2.5°
4
1%
23:00
Voelt als: -3.6°
1013.0 hPa   -1.9°
5
1%
 09:47     15:05    Daglengte: 5:18 Vrijdag 22 Dec
02:00
Voelt als: -2.7°
1007.4 hPa   -1.1°
6
1%
05:00
Voelt als: -2.4°
1001.8 hPa 1.2 mm 0.1°
7
1%
08:00
Voelt als: -2.6°
997.0 hPa 4.2 mm 1.0°
7
1%
14:00
Voelt als: -1.9°
991.6 hPa 3.6 mm 1.6°
5
1%
20:00
Voelt als: -3.6°
989.4 hPa 1.1 mm -0.7°
7
1%
 09:47     15:06    Daglengte: 5:19 Zaterdag 23 Dec
02:00
Voelt als: -3.3°
990.6 hPa 1.7 mm -0.4°
6
1%
08:00
Voelt als: -3.6°
994.4 hPa 1.1 mm -0.5°
5
1% warningclass
14:00
Voelt als: -4.2°
999.5 hPa 0.8 mm -1.3°
4
1% warningclass
20:00
-2°
Voelt als: -6.3°
1002.6 hPa 1.1 mm -3.0°
3
1% warningclass
 09:48     15:07    Daglengte: 5:19 Zondag 24 Dec
02:00
-3°
Voelt als: -7.2°
1003.6 hPa 2.6 mm -3.8°
4
1% warningclass
08:00
-3°
Voelt als: -8.5°
1005.5 hPa 0.6 mm -4.9°
4
1% warningclass
14:00
-4°
Voelt als: -7.7°
1007.7 hPa 0.4 mm -4.5°
3
1% warningclass
20:00
-3°
Voelt als: -5.6°
1010.1 hPa 0.4 mm -3.8°
2
1% warningclass
 09:48     15:08    Daglengte: 5:20 Maandag 25 Dec
02:00
-6°
Voelt als: -8.8°
1011.7 hPa   -6.6°
2
0%
08:00
-4°
Voelt als: -4.4°
1005.5 hPa   -4.8°
0
0%
14:00
-4°
Voelt als: -4.4°
1005.7 hPa 0.5 mm -4.0°
1
0%
20:00
-3°
Voelt als: -4.9°
1004.9 hPa 0.9 mm -3.8°
1
0%
 09:48     15:09    Daglengte: 5:21 Dinsdag 26 Dec
02:00
-3°
Voelt als: -5.8°
1005.4 hPa 1.1 mm -3.5°
2
0%
08:00
-3°
Voelt als: -5.6°
1006.0 hPa 0.8 mm -3.4°
2
0%
14:00
-2°
Voelt als: -4.8°
1006.0 hPa 1.0 mm -2.4°
2
0%
20:00
-2°
Voelt als: -4.2°
1007.2 hPa 0.7 mm -2.6°
1
0%
 09:48     15:10    Daglengte: 5:22 Woensdag 27 Dec
02:00
-3°
Voelt als: -5.0°
1008.8 hPa 0.5 mm -3.4°
2
0%
08:00
-3°
Voelt als: -5.0°
1009.8 hPa 0.6 mm -3.7°
1
0%
14:00
-2°
Voelt als: -4.2°
1012.1 hPa 0.6 mm -3.0°
1
0%
20:00
-3°
Voelt als: -4.0°
1013.9 hPa 0.5 mm -3.5°
1
0%
 09:47     15:11    Daglengte: 5:24 Donderdag 28 Dec
02:00
-3°
Voelt als: -4.7°
1014.4 hPa 0.5 mm -3.4°
1
0%
08:00
-2°
Voelt als: -4.5°
1014.1 hPa 0.8 mm -3.1°
1
0%
14:00
-2°
Voelt als: -4.5°
1014.9 hPa 0.7 mm -2.9°
2
0%
20:00
-3°
Voelt als: -5.2°
1015.5 hPa 0.4 mm -3.6°
2
0%
 09:47     15:12    Daglengte: 5:25 Vrijdag 29 Dec
02:00
-3°
Voelt als: -5.4°
1016.2 hPa 0.4 mm -4.2°
1
0%
08:00
-3°
Voelt als: -5.5°
1015.6 hPa 0.6 mm -4.0°
2
0%
14:00
-3°
Voelt als: -4.7°
1015.8 hPa 0.9 mm -3.4°
1
0%
20:00
-3°
Voelt als: -5.1°
1016.2 hPa 0.4 mm -4.2°
1
0%
 09:47     15:13    Daglengte: 5:26 Zaterdag 30 Dec
02:00
-3°
Voelt als: -5.1°
1016.3 hPa 0.3 mm -4.2°
1
0%
08:00
-3°
Voelt als: -5.2°
1015.4 hPa 0.4 mm -4.0°
1
0%
  CAPE Lifted Index Hail Supercell Tornado SRH 3km CL BTM PRES CL TOP PRES Swiss DWD icon SMHI TS
 09:42     15:03    Daglengte: 5:21 Vandaag
11:00 1 J/kg 2.8 K 0 % 0 % 0 % 0 m²/s² 0 0 5.08 71
12:00 1 J/kg 2.3 K 0 % 0 % 0 % 0 m²/s² 0 0 4.16 3
13:00 1 J/kg 2.1 K 0 % 0 % 0 % 0 m²/s² 0 0 3.51 3
14:00 1 J/kg 1.5 K 0 % 0 % 0 % 0 m²/s² 0 0 2.49 3
15:00 0 J/kg 0.9 K 0 % 0 % 0 % 0 m²/s² 0 0 1.56 3
16:00 0 J/kg 0.4 K 0 % 0 % 0 % 0 m²/s² 0 0 1.06 3
17:00 1 J/kg 0.6 K 0 % 0 % 0 % 0 m²/s² 0 0 1.38 3
18:00 0 J/kg 1.3 K 0 % 0 % 0 % 0 m²/s² 0 0 2.32 3
19:00 4 J/kg 2.0 K 0 % 0 % 0 % 0 m²/s² 0 0 3.56 3
20:00 3 J/kg 1.2 K 0 % 0 % 0 % 0 m²/s² 0 0 3.21 3
21:00 1 J/kg 1.1 K 0 % 0 % 0 % 0 m²/s² 0 0 3.11 3
22:00 2 J/kg 1.8 K 0 % 0 % 0 % 0 m²/s² 0 0 3.03 3
23:00 1 J/kg 1.2 K 0 % 0 % 0 % 0 m²/s² 0 0 1.92 3
 09:43     15:03    Daglengte: 5:20 Morgen
00:00 1 J/kg 1.6 K 0 % 0 % 0 % 0 m²/s² 0 0 2.32 77
01:00 1 J/kg 1.4 K 0 % 0 % 0 % 0 m²/s² 0 0 2 71
02:00 1 J/kg 1.2 K 0 % 0 % 0 % 0 m²/s² 0 0 1.77 71
03:00 1 J/kg 0.9 K 0 % 0 % 0 % 0 m²/s² 0 0 1.47 77
04:00 1 J/kg 0.5 K 0 % 0 % 0 % 0 m²/s² 0 0 1.1 77
05:00 1 J/kg 0.8 K 0 % 0 % 0 % 0 m²/s² 0 0 1.67 71
06:00 1 J/kg 0.7 K 0 % 0 % 0 % 0 m²/s² 0 0 1.3 71
07:00 0 J/kg 0.8 K 0 % 0 % 0 % 0 m²/s² 0 0 1.49 71
08:00 0 J/kg 0.6 K 0 % 0 % 0 % 0 m²/s² 0 0 1.29 77
09:00 1 J/kg 0.9 K 0 % 0 % 0 % 0 m²/s² 0 0 1.83 85
10:00 1 J/kg 1.2 K 0 % 0 % 0 % 0 m²/s² 0 0 2.13 71
11:00 1 J/kg 1.5 K 0 % 0 % 0 % 0 m²/s² 0 0 2.31 71
12:00 3 J/kg 1.4 K 0 % 0 % 0 % 0 m²/s² 0 0 2.12 77
13:00 0 J/kg 0.8 K 0 % 0 % 0 % 0 m²/s² 0 0 1.4 77
14:00 1 J/kg 0.7 K 0 % 0 % 0 % 0 m²/s² 0 0 1.3 77
15:00 1 J/kg 0.9 K 0 % 0 % 0 % 0 m²/s² 0 0 1.8 77
16:00 1 J/kg 1.3 K 0 % 0 % 0 % 0 m²/s² 0 0 2.44 77
17:00 2 J/kg 1.8 K 0 % 0 % 0 % 0 m²/s² 0 0 3.45 77
18:00 6 J/kg 1.9 K 0 % 0 % 0 % 0 m²/s² 0 0 3.73 77
19:00 6 J/kg 2.0 K 0 % 0 % 0 % 0 m²/s² 0 0 3.77 45
20:00 6 J/kg 2.5 K 0 % 0 % 0 % 0 m²/s² 0 0 4.09 77
21:00 5 J/kg 3.1 K 0 % 0 % 0 % 0 m²/s² 0 0 4.81 77
22:00 2 J/kg 3.4 K 0 % 0 % 0 % 0 m²/s² 0 0 5.35 77
23:00 3 J/kg 3.3 K 0 % 0 % 0 % 0 m²/s² 0 0 6.03 85
 09:44     15:03    Daglengte: 5:19 Zondag 17 Dec
00:00 6 J/kg 3.2 K 0 % 0 % 0 % 0 m²/s² 0 0 6.68 3
01:00 10 J/kg 3.0 K 0 % 0 % 0 % 0 m²/s² 0 0 6.48 3
02:00 11 J/kg 3.0 K 0 % 0 % 0 % 0 m²/s² 0 0 6.15 3
03:00 12 J/kg 3.0 K 0 % 0 % 0 % 0 m²/s² 0 0 6.06 3
04:00 10 J/kg 3.0 K 0 % 0 % 0 % 0 m²/s² 0 0 6.15 3
05:00 6 J/kg 2.9 K 0 % 0 % 0 % 0 m²/s² 0 0 5.72 3
06:00 1 J/kg 2.9 K 0 % 0 % 0 % 0 m²/s² 0 0 5.24 77
07:00 0 J/kg 2.8 K 0 % 0 % 0 % 0 m²/s² 0 0 4.69 77
08:00 0 J/kg 2.7 K 0 % 0 % 0 % 0 m²/s² 0 0 4.41 3
09:00 7 J/kg 2.8 K 0 % 0 % 0 % 0 m²/s² 0 0 4.36 3
10:00 3 J/kg 2.9 K 0 % 0 % 0 % 0 m²/s² 0 0 4.34 3
11:00 0 J/kg 3.0 K 0 % 0 % 0 % 0 m²/s² 0 0 4.38 3
12:00 0 J/kg 3.2 K 0 % 0 % 0 % 0 m²/s² 0 0 4.43 3
13:00 0 J/kg 3.4 K 0 % 0 % 0 % 0 m²/s² 0 0 4.45 3
14:00 3 J/kg 3.6 K 0 % 0 % 0 % 0 m²/s² 0 0 4.8 3
15:00 5 J/kg 4.0 K 0 % 0 % 0 % 0 m²/s² 0 0 5.74 3
16:00 5 J/kg 4.8 K 0 % 0 % 0 % 0 m²/s² 0 0 7.65 2
17:00 4 J/kg 5.5 K 0 % 0 % 0 % 0 m²/s² 0 0 9.58 2
18:00 1 J/kg 5.4 K 0 % 0 % 0 % 0 m²/s² 0 0 9.81 3
19:00 2 J/kg 4.9 K 0 % 0 % 0 % 0 m²/s² 0 0 8.89 3
20:00 1 J/kg 4.6 K 0 % 0 % 0 % 0 m²/s² 0 0 8.2 3
21:00 1 J/kg 4.5 K 0 % 0 % 0 % 0 m²/s² 0 0 7.65 3
22:00 0 J/kg 4.0 K 0 % 0 % 0 % 0 m²/s² 0 0 7 3
23:00 0 J/kg 3.8 K 0 % 0 % 0 % 0 m²/s² 0 0 6.8 3
 09:45     15:04    Daglengte: 5:19 Maandag 18 Dec
00:00 1 J/kg 3.6 K 0 % 0 % 0 % 0 m²/s² 0 0 6.36 2
01:00 0 J/kg 3.2 K 0 % 0 % 0 % 0 m²/s² 0 0 6.2 3
02:00 0 J/kg 3.6 K 0 % 0 % 0 % 0 m²/s² 0 0 6.93 3
03:00 1 J/kg 4.1 K 0 % 0 % 0 % 0 m²/s² 0 0 7.25 2
04:00 0 J/kg 4.5 K 0 % 0 % 0 % 0 m²/s² 0 0 7.5 3
05:00 1 J/kg 4.8 K 0 % 0 % 0 % 0 m²/s² 0 0 7.65 3
06:00 1 J/kg 5.0 K 0 % 0 % 0 % 0 m²/s² 0 0 7.55 3
07:00 1 J/kg 5.3 K 0 % 0 % 0 % 0 m²/s² 0 0 7.7 3
08:00 1 J/kg 5.2 K 0 % 0 % 0 % 0 m²/s² 0 0 7.42 3
09:00 0 J/kg 5.8 K 0 % 0 % 0 % 0 m²/s² 0 0 8.2
10:00 0 J/kg 6.2 K 0 % 0 % 0 % 0 m²/s² 0 0 8.75
Temp Baro Wind Neerslag
  EWN Forecast EWN WRFDA DWD ICON FMI HIRLAM MET Norway GFS
 09:42     15:03    Daglengte: 5:21 Vandaag
11:00 -0.8° 991.0 hPa 3.2 m/s 0.0 mm -0.7° 988.1 hPa 4.3 m/s 0.6 mm -1.0° 991.4 hPa 3.2 m/s -1.2 mm 0.0° 990.1 hPa 2.3 m/s 0.0 mm -0.4° 991.4 hPa 3.5 m/s
14:00 -0.3° 991.0 hPa 2.8 m/s 0.0 mm -0.1° 988.1 hPa 3.5 m/s 1.8 mm -0.4° 991.4 hPa 3.0 m/s 0.1 mm 0.4° 990.5 hPa 1.8 m/s 0.0 mm 0.1° 991.6 hPa 2.8 m/s
17:00 -0.1° 991.6 hPa 2.6 m/s 0.0 mm 0.0° 988.8 hPa 3.3 m/s 2.1 mm -0.1° 992.0 hPa 2.9 m/s 0.0 mm 0.4° 990.7 hPa 1.9 m/s 0.0 mm -0.4° 992.2 hPa 2.6 m/s
20:00 0.1° 992.3 hPa 2.3 m/s 0.0 mm 0.4° 989.3 hPa 3.4 m/s 2.2 mm 0.2° 992.6 hPa 2.4 m/s 0.0 mm 0.7° 991.3 hPa 1.7 m/s 0.0 mm -0.1° 992.7 hPa 2.6 m/s
23:00 0.1° 992.7 hPa 2.8 m/s 0.0 mm 0.4° 989.6 hPa 5.1 m/s 2.4 mm 0.1° 993.0 hPa 3.0 m/s 0.0 mm 1.2° 991.8 hPa 2.2 m/s 0.0 mm 1.3° 993.4 hPa 4.0 m/s
 09:43     15:03    Daglengte: 5:20 Morgen
02:00 0.0° 993.0 hPa 3.6 m/s 0.0 mm 0.1° 989.6 hPa 5.2 m/s 2.5 mm -0.1° 993.2 hPa 3.9 m/s 0.9 mm 1.1° 992.5 hPa 2.8 m/s 0.0 mm 1.5° 993.7 hPa 4.3 m/s
05:00 -0.1° 993.2 hPa 3.4 m/s 2.7 mm 0.0° 989.8 hPa 5.7 m/s 6.8 mm -0.4° 993.3 hPa 3.4 m/s 1.4 mm 0.8° 993.0 hPa 2.5 m/s 0.0 mm 1.5° 994.0 hPa 4.4 m/s
08:00 -0.1° 993.7 hPa 3.0 m/s 3.6 mm -0.2° 990.6 hPa 4.6 m/s 13.4 mm -0.2° 993.6 hPa 2.9 m/s 1.0 mm 0.9° 993.8 hPa 2.5 m/s 0.0 mm 1.1° 994.9 hPa 4.0 m/s
11:00 -0.2° 994.9 hPa 2.6 m/s 4.5 mm 0.2° 991.6 hPa 4.7 m/s 15.8 mm -0.4° 995.0 hPa 2.3 m/s 1.5 mm 0.8° 995.0 hPa 2.1 m/s 0.0 mm 0.5° 995.9 hPa 2.8 m/s
14:00 0.0° 995.9 hPa 2.2 m/s 2.6 mm 0.1° 992.3 hPa 4.3 m/s 17.9 mm -0.1° 995.8 hPa 1.3 m/s 0.8 mm 1.4° 995.9 hPa 2.4 m/s 0.0 mm 0.9° 997.1 hPa 2.8 m/s
17:00 -0.2° 997.2 hPa 1.5 m/s 0.0 mm 0.1° 993.2 hPa 2.3 m/s 21.9 mm -0.6° 997.2 hPa 0.2 m/s 0.2 mm 0.9° 997.2 hPa 2.2 m/s 0.0 mm -0.5° 998.7 hPa 2.4 m/s
20:00 -0.3° 998.8 hPa 1.1 m/s 0.0 mm 0.0° 994.7 hPa 1.7 m/s 22.2 mm -0.9° 998.9 hPa 0.9 m/s 0.1 mm 0.7° 998.3 hPa 1.8 m/s 0.0 mm -2.9° 1000.4 hPa 1.3 m/s
23:00 -0.5° 1000.2 hPa 1.2 m/s 0.0 mm -0.8° 995.9 hPa 1.5 m/s 22.7 mm -1.1° 1000.5 hPa 2.0 m/s 0.2 mm 0.5° 999.0 hPa 1.1 m/s 0.0 mm -2.2° 1001.6 hPa 0.8 m/s
 09:44     15:03    Daglengte: 5:19 Zondag 17 Dec
02:00 -0.8° 1001.4 hPa 1.1 m/s 0.0 mm -0.8° 997.2 hPa 1.7 m/s 15.3 mm -2.0° 1002.1 hPa 2.3 m/s 0.0 mm 0.3° 999.6 hPa 0.6 m/s 0.0 mm -1.2° 1003.1 hPa 0.4 m/s
05:00 -1.5° 1002.9 hPa 2.5 m/s 0.0 mm -1.4° 998.1 hPa 3.0 m/s 23.2 mm -2.6° 1003.6 hPa 2.6 m/s 0.0 mm -1.9° 1004.0 hPa 0.3 m/s
08:00 -2.3° 1003.9 hPa 2.6 m/s 0.0 mm -2.7° 999.7 hPa 1.5 m/s 23.6 mm -2.3° 1004.7 hPa 3.1 m/s 0.0 mm -2.2° 1005.4 hPa 1.0 m/s
11:00 -3.0° 1005.7 hPa 2.9 m/s 0.0 mm -3.7° 1002.1 hPa 2.9 m/s 23.8 mm -2.8° 1006.8 hPa 3.2 m/s 0.0 mm -0.9° 1007.3 hPa 1.0 m/s
14:00 -3.5° 1007.0 hPa 2.2 m/s 0.0 mm -3.3° 1003.7 hPa 2.2 m/s 23.9 mm -4.0° 1007.9 hPa 2.3 m/s 0.0 mm -0.6° 1008.3 hPa 0.7 m/s
17:00 -5.2° 1008.4 hPa 1.5 m/s 0.0 mm -4.0° 1005.5 hPa 2.4 m/s 24.0 mm -5.4° 1008.8 hPa 0.6 m/s 0.0 mm -2.0° 1009.6 hPa 1.5 m/s
20:00 -5.4° 1009.3 hPa 0.9 m/s 0.0 mm -4.7° 1006.9 hPa 1.4 m/s 24.2 mm -5.5° 1009.5 hPa 0.7 m/s 0.0 mm -4.4° 1010.6 hPa 1.4 m/s
23:00 -4.2° 1009.9 hPa 1.7 m/s 2.8 mm -4.0° 1007.8 hPa 2.2 m/s 24.3 mm -4.2° 1009.8 hPa 1.6 m/s 0.0 mm -5.5° 1011.8 hPa 0.9 m/s
 09:45     15:04    Daglengte: 5:19 Maandag 18 Dec
02:00 -3.3° 1010.6 hPa 1.6 m/s 2.8 mm -2.4° 1009.0 hPa 2.7 m/s 16.3 mm -3.4° 1010.4 hPa 1.5 m/s 0.0 mm -5.8° 1013.3 hPa 1.0 m/s
05:00 -2.4° 1011.1 hPa 1.8 m/s 0.0 mm -2.7° 1009.9 hPa 2.5 m/s 24.6 mm -2.3° 1011.5 hPa 1.6 m/s 0.0 mm -6.2° 1014.2 hPa 0.9 m/s
08:00 -2.0° 1012.5 hPa 1.8 m/s 0.0 mm -3.2° 1011.8 hPa 2.1 m/s 24.7 mm -1.8° 1012.7 hPa 1.8 m/s 0.0 mm -6.5° 1015.8 hPa 0.6 m/s
11:00 -2.8° 1014.0 hPa 1.8 m/s 24.9 mm -2.8° 1014.0 hPa 1.8 m/s 24.9 mm -6.2° 1018.0 hPa 0.6 m/s
14:00 -1.9° 1014.9 hPa 1.9 m/s 25.2 mm -1.9° 1014.9 hPa 1.9 m/s 25.2 mm -5.8° 1019.3 hPa 0.5 m/s
17:00 -6.7° 1021.1 hPa 0.3 m/s 0.0 mm -6.7° 1021.1 hPa 0.3 m/s 0.0 mm
20:00 -6.9° 1022.5 hPa 0.3 m/s 0.0 mm -6.9° 1022.5 hPa 0.3 m/s 0.0 mm
23:00 -7.1° 1023.7 hPa 0.5 m/s 0.0 mm -7.1° 1023.7 hPa 0.5 m/s 0.0 mm
 09:45     15:04    Daglengte: 5:19 Dinsdag 19 Dec
02:00 -6.9° 1024.2 hPa 0.9 m/s 0.0 mm -6.9° 1024.2 hPa 0.9 m/s 0.0 mm
05:00 -6.3° 1023.7 hPa 1.7 m/s 0.0 mm -6.3° 1023.7 hPa 1.7 m/s 0.0 mm
08:00 -4.8° 1024.4 hPa 1.7 m/s 0.0 mm -4.8° 1024.4 hPa 1.7 m/s 0.0 mm
11:00 -3.3° 1024.4 hPa 2.4 m/s 0.1 mm -3.3° 1024.4 hPa 2.4 m/s 0.1 mm
14:00 -2.5° 1024.4 hPa 1.9 m/s 0.5 mm -2.5° 1024.4 hPa 1.9 m/s 0.5 mm
17:00 -2.4° 1024.7 hPa 1.7 m/s 0.0 mm -2.4° 1024.7 hPa 1.7 m/s 0.1 mm
20:00 -4.0° 1025.3 hPa 1.7 m/s 0.0 mm -4.0° 1025.3 hPa 1.7 m/s 0.1 mm
23:00 -4.6° 1025.3 hPa 2.1 m/s 0.0 mm -4.6° 1025.3 hPa 2.1 m/s 0.0 mm
 09:46     15:04    Daglengte: 5:18 Woensdag 20 Dec
02:00 -3.3° 1025.3 hPa 2.2 m/s 0.0 mm -3.3° 1025.3 hPa 2.2 m/s 0.0 mm
05:00 -0.8° 1024.3 hPa 3.1 m/s 0.0 mm -0.8° 1024.3 hPa 3.1 m/s 0.0 mm
08:00 -0.3° 1023.6 hPa 3.2 m/s 0.5 mm -0.3° 1023.6 hPa 3.2 m/s 0.5 mm
11:00 0.5° 1023.1 hPa 4.0 m/s 0.3 mm 0.5° 1023.1 hPa 4.0 m/s 0.3 mm
14:00 1.1° 1021.6 hPa 3.9 m/s 1.2 mm 1.1° 1021.6 hPa 3.9 m/s 1.2 mm
17:00 1.1° 1020.9 hPa 2.5 m/s 2.9 mm 1.1° 1020.9 hPa 2.5 m/s 2.9 mm
20:00 0.9° 1021.4 hPa 2.0 m/s 6.4 mm 0.9° 1021.4 hPa 2.0 m/s 6.4 mm
23:00 0.7° 1022.4 hPa 3.3 m/s 0.2 mm 0.7° 1022.4 hPa 3.3 m/s 0.2 mm
 09:47     15:05    Daglengte: 5:18 Donderdag 21 Dec
02:00 -2.0° 1023.7 hPa 2.9 m/s 0.2 mm -2.0° 1023.7 hPa 2.9 m/s 0.2 mm
05:00 -3.7° 1025.0 hPa 2.2 m/s 0.0 mm -3.7° 1025.0 hPa 2.2 m/s 0.0 mm
08:00 -3.9° 1025.5 hPa 1.8 m/s 0.0 mm -3.9° 1025.5 hPa 1.8 m/s 0.0 mm
11:00 -2.9° 1025.5 hPa 1.7 m/s 0.0 mm -2.9° 1025.5 hPa 1.7 m/s 0.0 mm
14:00 -1.5° 1023.7 hPa 2.3 m/s 0.0 mm -1.5° 1023.7 hPa 2.3 m/s 0.0 mm
17:00 -1.6° 1020.9 hPa 2.9 m/s 0.0 mm -1.6° 1020.8 hPa 2.9 m/s 0.0 mm
20:00 -0.3° 1017.3 hPa 4.3 m/s 0.0 mm -0.3° 1017.3 hPa 4.3 m/s 0.0 mm
23:00 1.2° 1013.0 hPa 5.3 m/s 0.0 mm 1.2° 1013.0 hPa 5.3 m/s 0.0 mm
 09:47     15:05    Daglengte: 5:18 Vrijdag 22 Dec
02:00 2.2° 1007.4 hPa 6.1 m/s 0.0 mm 2.2° 1007.4 hPa 6.1 m/s 0.0 mm
05:00 2.7° 1001.8 hPa 6.9 m/s 1.2 mm 2.7° 1001.8 hPa 6.9 m/s 1.2 mm
08:00 2.7° 997.0 hPa 7.3 m/s 3.0 mm 2.7° 996.9 hPa 7.3 m/s 3.0 mm
14:00 2.5° 991.6 hPa 5.3 m/s 2.4 mm 2.5° 991.6 hPa 5.3 m/s 2.4 mm
20:00 1.7° 989.4 hPa 6.7 m/s 0.7 mm 1.7° 989.4 hPa 6.7 m/s 0.7 mm
 09:47     15:06    Daglengte: 5:19 Zaterdag 23 Dec
02:00 1.6° 990.6 hPa 5.8 m/s 1.1 mm 1.6° 990.6 hPa 5.8 m/s 1.1 mm
08:00 1.0° 994.4 hPa 4.9 m/s 0.8 mm 1.0° 994.4 hPa 4.9 m/s 0.8 mm
14:00 0.2° 999.5 hPa 4.3 m/s 0.5 mm 0.2° 999.5 hPa 4.3 m/s 0.5 mm
20:00 -2.0° 1002.6 hPa 3.4 m/s 0.8 mm -2.0° 1002.6 hPa 3.4 m/s 0.8 mm
 09:48     15:07    Daglengte: 5:19 Zondag 24 Dec
02:00 -2.5° 1003.6 hPa 3.8 m/s 1.7 mm -2.5° 1003.6 hPa 3.8 m/s 1.7 mm
08:00 -3.5° 1005.5 hPa 4.0 m/s 0.4 mm -3.5° 1005.5 hPa 4.0 m/s 0.4 mm
14:00 -3.5° 1007.7 hPa 2.9 m/s 0.3 mm -3.5° 1007.7 hPa 2.9 m/s 0.3 mm
20:00 -3.2° 1010.1 hPa 1.6 m/s 0.3 mm -3.2° 1010.1 hPa 1.6 m/s 0.3 mm
 09:48     15:08    Daglengte: 5:20 Maandag 25 Dec
02:00 -5.9° 1011.7 hPa 1.7 m/s 0.0 mm -5.9° 1011.7 hPa 1.7 m/s 0.0 mm
08:00 -4.4° 1005.5 hPa 0.4 m/s 0.0 mm
14:00 -3.6° 1005.7 hPa 0.9 m/s 0.5 mm
20:00 -3.4° 1004.9 hPa 1.1 m/s 0.9 mm
 09:48     15:09    Daglengte: 5:21 Dinsdag 26 Dec
02:00 -3.1° 1005.4 hPa 1.8 m/s 1.1 mm
08:00 -3.0° 1006.0 hPa 1.8 m/s 0.8 mm
14:00 -2.0° 1006.0 hPa 2.0 m/s 1.0 mm
20:00 -2.2° 1007.2 hPa 1.5 m/s 0.7 mm
 09:48     15:10    Daglengte: 5:22 Woensdag 27 Dec
02:00 -2.7° 1008.8 hPa 1.6 m/s 0.5 mm
08:00 -3.0° 1009.8 hPa 1.4 m/s 0.6 mm
14:00 -2.3° 1012.1 hPa 1.4 m/s 0.6 mm
20:00 -2.9° 1013.9 hPa 1.0 m/s 0.5 mm
 09:47     15:11    Daglengte: 5:24 Donderdag 28 Dec
02:00 -2.8° 1014.4 hPa 1.4 m/s 0.5 mm
08:00 -2.5° 1014.1 hPa 1.4 m/s 0.8 mm
14:00 -2.2° 1014.9 hPa 1.6 m/s 0.7 mm
20:00 -2.9° 1015.5 hPa 1.6 m/s 0.4 mm
 09:47     15:12    Daglengte: 5:25 Vrijdag 29 Dec
02:00 -3.5° 1016.2 hPa 1.3 m/s 0.4 mm
08:00 -3.3° 1015.6 hPa 1.5 m/s 0.6 mm
14:00 -2.7° 1015.8 hPa 1.4 m/s 0.9 mm
20:00 -3.5° 1016.2 hPa 1.2 m/s 0.4 mm
 09:47     15:13    Daglengte: 5:26 Zaterdag 30 Dec
02:00 -3.5° 1016.3 hPa 1.2 m/s 0.3 mm
08:00 -3.5° 1015.4 hPa 1.2 m/s 0.4 mm
FMI Hirlam - 7.5 km EWN WRFDA - 12 km DWD ICON - 7 km GFS - 25 km Basiskaart






























































Updatetijd (Europe/Amsterdam) Resolutie Lengte Stap
FMI Hirlam 06:00, 12:00, 18:00, 00:00 7.5 km 49h 1h
EWN WRFDA 08:00, 14:00, 20:00, 02:00 12 km 73h 1h
DWD ICON 05:45, 11:45, 17:45, 23:45 7 km 75h 1h
GFS 08:15, 14:15, 20:15, 02:15 25 km 237h 3h
30+ mm
25-30 mm
20-25 mm
15-20 mm
10-15 mm
6-10 mm
4-6 mm
2-4 mm
1-2 mm
0.5-1 mm
0.2-0.5 mm
0.1-0.2 mm
30+ mm
25-30 mm
20-25 mm
15-20 mm
10-15 mm
6-10 mm
4-6 mm
2-4 mm
1-2 mm
0.5-1 mm
0.2-0.5 mm
0.1-0.2 mm
Sneeuwval
Natte sneeuw
Hagel
Vorst
30+ mm
25-30 mm
20-25 mm
15-20 mm
10-15 mm
6-10 mm
4-6 mm
2-4 mm
1-2 mm
0.5-1 mm
0.2-0.5 mm
0.1-0.2 mm
Sneeuwval
Natte sneeuw
Hagel
Vorst
Onweer
50 mm
40 mm
30 mm
26 mm
22 mm
18 mm
14 mm
10 mm
9 mm
8 mm
7 mm
6 mm
5 mm
4.5 mm
4 mm
3.5 mm
3 mm
2.5 mm
2 mm
1.5 mm
1 mm
0.8 mm
0.6 mm
0.4 mm
0.2 mm
0.05 mm
35°
30°
25°
20°
15°
10°
-5°
-10°
-15°
-20°
-25°
-30°
-35°
33> m/s
29 m/s
25 m/s
21 m/s
17 m/s
14 m/s
11 m/s
8 m/s
5 m/s
3 m/s
0 m/s
2600 J/kg
2400 J/kg
2200 J/kg
2000 J/kg
1800 J/kg
1600 J/kg
1400 J/kg
1200 J/kg
1000 J/kg
800 J/kg
600 J/kg
400 J/kg
200 J/kg
70 dBZ
65 dBZ
60 dBZ
55 dBZ
50 dBZ
45 dBZ
40 dBZ
35 dBZ
30 dBZ
25 dBZ
20 dBZ
15 dBZ
10 dBZ
5 dBZ
-1 K
-2 K
-3 K
-4 K
-5 K
-6 K
-7 K
-8 K
-9 K
950 m²/s²
900 m²/s²
850 m²/s²
800 m²/s²
750 m²/s²
700 m²/s²
650 m²/s²
600 m²/s²
550 m²/s²
500 m²/s²
450 m²/s²
400 m²/s²
350 m²/s²
300 m²/s²
250 m²/s²
200 m²/s²
150 m²/s²
100 m²/s²
46 m/s
44 m/s
42 m/s
40 m/s
38 m/s
36 m/s
34 m/s
32 m/s
30 m/s
28 m/s
26 m/s
24 m/s
22 m/s
20 m/s
16 m/s
12 m/s
8 m/s
4 m/s
30 m/s
28 m/s
26 m/s
24 m/s
22 m/s
20 m/s
18 m/s
16 m/s
14 m/s
12 m/s
10 m/s
8 m/s
6 m/s
4 m/s
2 m/s
3.0
2.8
2.6
2.4
2.2
2.0
1.8
1.6
1.4
1.2
1.0
0.8
0.6
0.4
0.2
15
14
13
12
11
10
9
8
7
6
5
4
3
2
1
90%
80%
70%
60%
50%
40%
30%
20%
10%
42
40
38
36
34
32
30
28
26
24
22
20
18
16
14
12
90+ cm
80-90 cm
70-80 cm
60-70 cm
50-60 cm
40-50 cm
30-40 cm
20-30 cm
10-20 cm
1-10 cm
Sneeuwval
Natte sneeuw
Regen
>120 mm
115 mm
110 mm
105 mm
100 mm
95 mm
90 mm
85 mm
80 mm
75 mm
70 mm
65 mm
60 mm
55 mm
50 mm
45 mm
45 mm
40 mm
35 mm
30 mm
25 mm
20 mm
15 mm
10 mm
5 mm
0.1 mm
960 hPa
880 hPa
800 hPa
720 hPa
640 hPa
560 hPa
584 gpdm
568 gpdm
552 gpdm
536 gpdm
520 gpdm
504 gpdm
488 gpdm
Extreem zwaar Noodweer Kans op onweer
15% 15% 5% 50% 15%

Dag




Kaart






35°
30°
25°
20°
15°
10°
-5°
-10°
-15°
-20°
-25°
-30°
-35°
33> m/s
29 m/s
25 m/s
21 m/s
17 m/s
14 m/s
11 m/s
8 m/s
5 m/s
3 m/s
0 m/s
Extreem zwaar Noodweer Kans op onweer
15% 15% 5% 50% 15%
>120 mm
115 mm
110 mm
105 mm
100 mm
95 mm
90 mm
85 mm
80 mm
75 mm
70 mm
65 mm
60 mm
55 mm
50 mm
45 mm
45 mm
40 mm
35 mm
30 mm
25 mm
20 mm
15 mm
10 mm
5 mm
0.1 mm
Onweer risico kaarten - De groene en gele kleur geeft de kans op onweer aan binnen 40 km van een punt. Oranje, rood en violet hebben hetzelfde niveau zoals je het ziet op estofex.org waaronder ook de kans op hagel en supercells.

dBZ - dBZ staat voor decibel ten opzichte van Z.

Cape - Convective available potential energy (CAPE), is de totale hoeveelheid energie die een luchtpakketje nodig heeft om zover mogelijk te stijgen in de atmosfeer.

K Index - K-Index wordt berekend door de Vertical Totals (VT) en het verschil tussen de 850 hPa temperatuur en de 700 hPa dauwpuntsdepressie (Tdd 700) bij elkaar op te tellen.

TT Index - Convectie index wordt gebruikt voor het voorspellen van zware buien of onweer.

WRF - The Weather Research and Forecasting (WRF) is een volgende generatie mesoscale numeriek weersvoorspelling systeem ontworpen om zowel de operationele planning als het atmosferisch onderzoek te dienen. WRF is a cooperatie tussen het National Center for Atmospheric Research (NCAR), National Centers for Environmental Prediction (NCEP), Forecast Systems Laboratory (FSL), Air Force Weather Agency (AFWA), Naval Research Laboratory, University of Oklahoma, en de Federal Aviation Administration (FAA). Deze software draait op onze server.

WRFDA - Een meer geavanceerde versie van WRF

Arome - Het 2.5 km Arome model. Verzorgd door het Noors Meteorologisch Instituut.

MET Norway - De proff-default 4km meteorological data is een beste keus selectie van meteorologische modellen gebruikt door met.no die zijn geïnterpoleerd tot een gemeenschappelijke dataset. Verzorgd door het Noorse Meteorologisch Instituut.

SMHI - Het Hirlam model verzorgd door het Zweeds meteorologisch instituut.

FMI - Het Hirlam model verzorgd door het Fins meteorologisch instituut. Dekking alleen Finland.

GFS - Het Global Forecast Systeem (GFS) is een wereldwijd numerieke weersvoorspelling computermodel, gerund door NOAA.

GEM-GDPS - Het GEM-GDPS is a wereldwijd numeriek weersvoorspelling computermodel verzorgd door het Canadees Meteorologisch Centrum.

Credits/Info: Dank aan Stefan Gofferje van sääkeskus.fi voor enkele formules van GrADS. Info: Wikipedia.

Betrouwbaarheid van de verwachting

NB! 2015-03-29: Rebuilding the accuracy-test!

EWNACC
Day 1 Good forecasts

Dag 1 Tmax

Dag 2 Tmax

Geladen verwachtingen TOP 50

Totaal geladen verwachtingen:
Plaats Latitude Longitude Verwachtingen Plaats Latitude Longitude Verwachtingen